Regional Weather Roundup
Issued by NWS

Home | Current Version | Previous Version | Text Only | Print | Product List | Glossary Off
Versions: 1 2 3 4 5 6 7 8 9 10 11 12 13 14 15 16 17 18 19 20 21 22 23 24 25 26 27

000
ASUS45 KSLC 022010
RWRUT

UTAH REGIONAL WEATHER ROUNDUP
NATIONAL WEATHER SERVICE SALT LAKE CITY UT
200 PM MDT MON MAY 02 2016

UTZ001>011-023>025-022100-

NORTHERN UTAH

CITY           SKY/WX    TMP DP  RH WIND       PRES   REMARKS
BRIGHAM CITY     N/A     63  30  28 W6        30.21F
HILL AFB         N/A     62  30  29 VRB3      30.21F
LOGAN            N/A     62  32  32 VRB5      30.21F
OGDEN            N/A     66  30  26 N7        30.20F
PROVO AIRPORT  MOSUNNY   63  34  34 VRB6      30.19F
SALT LAKE CITY   N/A     67  28  23 NW8       30.19F
VERNAL         SUNNY     58  26  29 MISG      30.21F
WENDOVER         N/A     61  36  39 SE6       30.22S
HEBER CITY       N/A     59  27  29 W3        30.20F

$$

UTZ012>022-026-027-022100-

SOUTHERN/CENTRAL UTAH

CITY           SKY/WX    TMP DP  RH WIND       PRES   REMARKS
BLANDING         N/A     52  35  52 CALM      30.31F
BRYCE CANYON   PTSUNNY   48  33  56 VRB3      30.25F
CEDAR CITY       N/A     60  34  37 VRB3G17   30.17F
DELTA            N/A     63  32  31 W8        30.19F
HANKSVILLE     CLOUDY    61  34  36 N3        30.21F
MILFORD        PTSUNNY   62  35  36 SE16      30.18F
MOAB/CYNLANDS    N/A     66  35  31 VRB3      30.17F
PRICE            N/A     59  30  33 S5        30.21F
ST GEORGE        N/A     70  39  32 W3        30.12F
KANAB            N/A     64  37  36 E12       30.21F

$$

REGIONAL REPORTS     COLORADO/ARIZONA

CITY           SKY/WX    TMP DP  RH WIND       PRES   REMARKS
CRAIG, CO      MOSUNNY   57  27  31 NW6       30.22F
GRAND JUNCTION MOSUNNY   61  34  36 W6        30.18F
RIFLE          MOSUNNY   62  28  27 N5        30.17F
MONTROSE       MOSUNNY   59  31  34 N6        30.22F
CORTEZ         PTSUNNY   57  35  43 S14       30.22F
PAGE, AZ       PTSUNNY   63  39  41 E5        30.18F
GRAND CANYON   PTSUNNY   54  34  46 NE14G22   30.23S
KINGMAN          N/A     72  34  24 VRB6      30.09F
FLAGSTAFF        N/A     50  35  56 S7        30.22F

$$

REGIONAL REPORTS    NEVADA/IDAHO/WYOMING

CITY           SKY/WX    TMP DP  RH WIND       PRES   REMARKS
LAS VEGAS, NV    N/A     76  36  23 VRB3      30.04F
ELY            CLOUDY    57  26  30 CALM      30.21F
ELKO             N/A     61  32  33 W5        30.18F
POCATELLO, ID  MOSUNNY   63  25  23 NW8       30.22F
BURLEY           N/A     64  31  28 CALM      30.18F
EVANSTON, WY   SUNNY     53  18  25 VRB7G17   30.26F
ROCK SPRINGS   SUNNY     49  15  25 VRB7      30.27S
KEMMERER         N/A     52  14  22 S7        30.27F

$$




USA.gov is the U.S. government's official web portal to all federal, state and local government web resources and services.